User: anonymous   Login
Location: Plymouth
(43.7570°N, 71.6890°W)
Time: 15:56:37
(UTC-04:00)
Language:

Meteor 1-28 Rocket - Orbit

View from above orbital plane
View from above orbital plane
View from above satellite
View from above satellite

Ground track
Ground track

The orbit data is extracted from the following two-line orbital elements,

1 10114U 77057B   14295.13172670  .00003724  00000-0  20869-3 0  3809
2 10114 097.2523 149.4998 0016966 099.7350 260.5800 15.13860065 36760
Epoch (UTC): 22 October 2014 03:09:41
Eccentricity: 0.0016966
inclination: 97.2523°
perigee height: 513 km
apogee height: 536 km
right ascension of ascending node: 149.4998°
argument of perigee: 99.7350°
revolutions per day: 15.13860065
mean anomaly at epoch: 260.5800°
orbit number at epoch: 3676

The dashed part of the orbit path shows where the satellite is in the earth's shadow,  

DLR